GW3487 Weather Reports


time (UTC)temp
C
wind
direction
speed
KPH
gust
KPH
rain 1hr
cm
rain 24hr
cm
rain mn
cm
humidity
%
barometer
mb
20260503013028 18 276 0.0 4.8 0.00 0.00 0.00 32 1014.6
20260503011533 18 276 3.2 9.7 0.00 0.00 0.00 31 1014.7
20260503010033 18 274 4.8 9.7 0.00 0.00 0.00 32 1014.8
20260503004601 18 249 6.4 12.9 0.00 0.00 0.00 32 1014.8
20260503003030 18 250 8.0 16.1 0.00 0.00 0.00 31 1015.1
20260503001530 18 236 9.7 17.7 0.00 0.00 0.00 30 1015.3
20260503000032 19 265 6.4 12.9 0.00 0.00 0.00 30 1015.3
20260502234536 20 263 8.0 14.5 0.00 0.00 0.00 30 1015.4
20260502233028 20 212 12.9 20.9 0.00 0.00 0.00 29 1015.6
20260502231528 20 341 4.8 14.5 0.00 0.00 0.00 30 1015.8
20260502230030 20 52 1.6 17.7 0.00 0.00 0.00 30 1015.9
20260502224530 20 296 8.0 25.7 0.00 0.00 0.00 32 1016.0
20260502223031 20 51 6.4 14.5 0.00 0.00 0.00 32 1016.1
20260502221533 18 327 6.4 9.7 0.00 0.00 0.00 33 1016.4
20260502220031 18 61 1.6 14.5 0.00 0.00 0.00 34 1016.6
20260502214530 19 355 9.7 20.9 0.00 0.00 0.00 32 1016.8
20260502213035 18 275 14.5 19.3 0.00 0.00 0.00 33 1017.0
20260502211530 18 5 11.3 19.3 0.00 0.00 0.00 34 1017.2
20260502210028 18 192 1.6 9.7 0.00 0.00 0.00 34 1017.4
20260502204532 18 270 9.7 19.3 0.00 0.00 0.00 35 1017.6
20260502203030 17 360 8.0 22.5 0.00 0.00 0.00 36 1017.7
20260502201538 17 346 16.1 27.4 0.00 0.00 0.00 36 1017.9
20260502200029 17 40 8.0 25.7 0.00 0.00 0.00 37 1018.0
20260502194537 17 355 24.1 33.8 0.00 0.00 0.00 37 1018.0
20260502193031 17 31 6.4 20.9 0.00 0.00 0.00 35 1018.2
20260502191538 18 32 11.3 25.7 0.00 0.00 0.00 35 1018.3
20260502190029 18 5 8.0 19.3 0.00 0.00 0.00 35 1018.4
20260502184536 18 50 6.4 25.7 0.00 0.00 0.00 33 1018.4
20260502183030 18 142 3.2 25.7 0.00 0.00 0.00 34 1018.6
20260502181535 17 15 16.1 30.6 0.00 0.00 0.00 37 1018.7
20260502163045 17 37 12.9 30.6 0.00 0.00 0.00 37 1019.3
20260502161529 16 5 17.7 27.4 0.00 0.00 0.00 37 1019.5
20260502151528 15 58 14.5 24.1 0.00 0.00 0.00 40 1019.4
20260502123030 7 20 14.5 19.3 0.00 0.00 0.00 54 1017.7
20260502121528 7 26 14.5 24.1 0.00 0.00 0.00 54 1017.6
20260502114531 8 355 12.9 17.7 0.00 0.00 0.00 49 1017.5
20260502113028 8 329 11.3 14.5 0.00 0.00 0.00 46 1017.1
20260502111529 9 344 8.0 17.7 0.00 0.00 0.00 45 1016.8
20260502110032 9 5 6.4 17.7 0.00 0.00 0.00 44 1016.5
20260502104528 8 326 6.4 12.9 0.00 0.00 0.00 46 1016.3
20260502103028 7 15 8.0 17.7 0.00 0.00 0.00 46 1016.1
20260502101530 7 284 11.3 12.9 0.00 0.00 0.00 47 1015.9
20260502091530 10 278 16.1 22.5 0.00 0.00 0.00 40 1015.3
20260502071531 10 304 6.4 14.5 0.00 0.00 0.00 36 1014.9
20260502070042 9 232 11.3 17.7 0.00 0.00 0.00 40 1014.8
20260502064538 8 234 9.7 16.1 0.00 0.00 0.00 41 1014.7
20260502063030 10 240 11.3 14.5 0.00 0.00 0.00 31 1014.7
20260502061531 11 282 11.3 16.1 0.00 0.00 0.00 34 1014.7
20260502060031 9 276 8.0 12.9 0.00 0.00 0.00 34 1014.6
20260502054530 11 304 4.8 14.5 0.00 0.00 0.00 30 1014.5
20260502053029 12 294 11.3 20.9 0.00 0.00 0.00 29 1014.3
20260502051530 13 273 14.5 24.1 0.00 0.00 0.00 27 1014.4
20260502050035 15 269 16.1 22.5 0.00 0.00 0.00 25 1014.2
20260502044528 15 275 19.3 25.7 0.00 0.00 0.00 24 1014.3
20260502043031 15 278 20.9 25.7 0.00 0.00 0.00 23 1014.1
20260502041534 16 269 19.3 27.4 0.00 0.00 0.00 22 1014.1
20260502040029 16 276 19.3 24.1 0.00 0.00 0.00 21 1014.0
20260502034537 16 261 12.9 17.7 0.00 0.00 0.00 21 1014.0
20260502033027 17 282 14.5 17.7 0.00 0.00 0.00 20 1013.8
20260502031528 17 275 14.5 20.9 0.00 0.00 0.00 20 1013.7
20260502030032 18 286 14.5 19.3 0.00 0.00 0.00 20 1013.6
20260502024529 19 273 14.5 22.5 0.00 0.00 0.00 19 1013.4
20260502023030 18 242 14.5 16.1 0.00 0.00 0.00 21 1013.1
20260502021530 18 240 11.3 14.5 0.00 0.00 0.00 21 1013.2
20260502020030 19 235 9.7 12.9 0.00 0.00 0.00 20 1013.1
20260502014547 21 239 9.7 14.5 0.00 0.00 0.00 17 1013.1